Volver al catálogo

POLYTECH UNIVERS-3

ActivoRadioaficionadoSSO
NORAD 57191·PAYLOAD·🇷🇺 Russia
Este nombre de satélite aún no ha sido confirmado por fuentes oficiales.

Lanzado Jun 27, 2023 desde Vostochny Cosmodrome

Loading…

Próximos Pases (próximas 24 horas)

TLE

ActualizadoSource: Space-Track

Época: Sep 14, 2026, 12:08 UTC

1 57191U 23091AB  26257.50574373  .00004005  00000-0  18964-3 0  9994
2 57191  97.4952 314.7148 0015424 172.2368 187.9109 15.19814861177514

Sigue POLYTECH UNIVERS-3 en tiempo real con AllMySat

Download on the App Store